Regional Weather Roundup
Issued by NWS Columbia, SC

Current Version | Previous Version | Text Only | Print | Product List | Glossary On
Versions: 1 2 3 4 5 6 7 8 9 10 11 12 13 14 15 16 17 18 19 20 21 22 23 24 25 26 27 28 29 30 31 32 33 34 35 36 37 38 39 40 41 42 43 44 45 46 47 48 49
000 ASUS42 KCAE 021710 RWRCAE REGIONAL WEATHER ROUNDUP NATIONAL WEATHER SERVICE COLUMBIA SC 1200 PM EST TUE MAR 02 2021 NOTE: "FAIR" INDICATES FEW OR NO CLOUDS BELOW 12,000 FEET WITH NO SIGNIFICANT WEATHER AND/OR OBSTRUCTIONS TO VISIBILITY. NOT ALL STATIONS ARE QUALITY CONTROLLED BY THE NATIONAL WEATHER SERVICE. USE DATA WITH CAUTION...ESPECIALLY DEWPOINT OBSERVATIONS. SCZ001>056-GAZ040-063>065-077-021800- ...UPSTATE SOUTH CAROLINA... CITY SKY/WX TMP DP RH WIND PRES REMARKS ANDERSON CLOUDY 47 25 42 E8 30.29R LIBERTY CLOUDY 46 25 44 E3 30.27S SPARTANBURG CLOUDY 45 25 45 NE3 30.28S CLEMSON CLOUDY 45 24 43 E7 30.29R GREENVILLE CLOUDY 47 25 42 NE8 30.27F GREENWOOD CLOUDY 46 27 47 VRB7 30.29F GREER CLOUDY 45 22 40 E6 30.28S ROCK HILL CLOUDY 47 19 33 VRB6 30.27F LAURENS CLOUDY 45 28 53 NE7 30.28S ...CENTRAL SOUTH CAROLINA... CITY SKY/WX TMP DP RH WIND PRES REMARKS COLUMBIA APT CLOUDY 50 27 40 VRB6 30.26F COLUMBIA OWENS CLOUDY 50 27 40 VRB5 30.28S MCENTIRE ANGB PTSUNNY 50 27 41 E6 30.25F ORANGEBURG CLOUDY 50 26 39 NE9 30.26S SUMTER SHAW CLOUDY 50 26 39 NE9 30.25F AIKEN FAIR 48 27 44 NE12 30.26F BARNWELL FAIR 50 28 43 E9 30.24F MANNING FAIR 50 28 43 NE7 30.24F CAMDEN FAIR 48 27 43 CALM 30.28S LANCASTER CLOUDY 46 25 42 VRB3 30.27F WINNSBORO PTSUNNY 46 28 49 E3 30.27R ...EASTERN AND COASTAL SOUTH CAROLINA... CITY SKY/WX TMP DP RH WIND PRES REMARKS MYRTLE BEACH CLOUDY 51 27 39 NE8 30.27S N MYRTLE BCH CLOUDY 51 25 36 N10 30.26F CONWAY FAIR 50 27 40 NE9 30.27S MARION FAIR 48 27 43 NE9 30.28F HARTSVILLE FAIR 48 23 37 E8 30.28S FLORENCE CLOUDY 50 23 34 NE13 30.28F DARLINGTON CLOUDY 49 26 41 NE10 30.29F CHARLESTON APT CLOUDY 54 29 38 NE10 30.24R MOUNT PLEASANT FAIR 54 32 43 CALM 30.24R WALTERBORO PTSUNNY 52 30 43 E10 30.25F BEAUFORT CLOUDY 56 33 42 NE7 30.22S HILTON HEAD SUNNY 55 37 50 E13G20 30.22S ...EASTERN GEORGIA... CITY SKY/WX TMP DP RH WIND PRES REMARKS AUGUSTA BUSH F CLOUDY 52 27 38 NE8 30.24F AUGUSTA DANIEL CLOUDY 51 25 36 E9 30.24F THOMSON CLOUDY 48 28 46 E6 30.25F WASHINGTON FAIR 46 30 53 E5 30.26F CLAXTON PTSUNNY 56 34 42 CALM 30.22S SYLVANIA CLOUDY 54 32 43 NE10 30.24S STATESBORO CLOUDY 54 30 41 NE6 30.22F SAVANNAH CLOUDY 57 36 45 NE10 30.21F ...SOUTHERN NORTH CAROLINA... CITY SKY/WX TMP DP RH WIND PRES REMARKS CHARLOTTE CLOUDY 46 20 35 NE8 30.28F MONROE CLOUDY 46 24 42 NE10 30.26F WADESBORO CLOUDY 48 21 34 N6 30.29F ROCKINGHAM CLOUDY 48 23 36 NE5 30.27F RUTHERFORDTON CLOUDY 43 23 45 CALM 30.29F $$

USA.gov is the U.S. government's official web portal to all federal, state and local government web resources and services.